Weather History for Rexburg, ID

Change the Weather History Date:

Monday, May 6, 2013

  Actual Average Record
Temperature  
Mean Temperature 53 °F 50 °F  
Max Temperature 72 °F 63 °F 78 °F (2004)
Min Temperature 34 °F 36 °F 24 °F (1999)
Degree Days  
Heating Degree Days 12 16  
Month to date heating degree days 106 98  
Since 1 July heating degree days 7450 7663  
Cooling Degree Days 0 0  
Month to date cooling degree days 0 0  
Year to date cooling degree days 0 0  
Growing Degree Days 4 (Base 50)    
Moisture  
Dew Point 32 °F    
Average Humidity 51    
Maximum Humidity 82    
Minimum Humidity 20    
Precipitation  
Precipitation T in 0.05 in 0.54 in (1993)
Month to date precipitation 0.04 0.32  
Year to date precipitation 3.05 4.43  
Sea Level Pressure  
Sea Level Pressure 29.89 in    
Wind  
Wind Speed 5 mph (East)    
Max Wind Speed 24 mph    
Max Gust Speed 31 mph    
Visibility 10 miles    
Events Rain    
T = Trace of Precipitation, MM = Missing Value Source: NWS Daily Summary

Daily Weather History Graph

Daily Weather History Graph

Search for Another Location

Airport:

Trip Planner

Search our weather history database for the weather conditions in past years. The results will help you decide how hot, cold, wet, or windy it might be!

Date:

Astronomy

May. 06, 2013 Rise Set
Actual Time 6:11 AM MDT 8:36 PM MDT
Civil Twilight 5:39 AM MDT 9:08 PM MDT
Nautical Twilight 4:59 AM MDT 9:48 PM MDT
Astronomical Twilight 4:14 AM MDT 10:34 PM MDT
Moon 4:22 AM MDT (5/6) 5:34 PM MDT (5/6)
Length of Visible Light 15h 28m
Length of Day
14h 24m
Waning Crescent, 10% of the Moon is Illuminated
May 6
Waning Crescent
May 9
New
May 17
First Quarter
May 24
Full
May 31
Last Quarter

Hourly Weather History & Observations

Time (MDT) Temp. Windchill Dew Point Humidity Pressure Visibility Wind Dir Wind Speed Gust Speed Precip Events Conditions
12:53 AM 44.1 °F 41.5 °F 35.1 °F 71% 29.94 in 10.0 mi NE 4.6 mph - N/A   Clear
1:53 AM 43.0 °F 38.8 °F 35.1 °F 74% 29.93 in 10.0 mi NE 6.9 mph - N/A   Clear
2:53 AM 43.0 °F 37.7 °F 35.1 °F 74% 29.93 in 10.0 mi NE 9.2 mph - N/A   Clear
3:53 AM 41.0 °F 37.1 °F 35.1 °F 79% 29.93 in 10.0 mi ENE 5.8 mph - N/A   Clear
4:53 AM 39.9 °F 35.1 °F 34.0 °F 79% 29.95 in 10.0 mi ENE 6.9 mph - N/A   Clear
5:53 AM 37.0 °F 33.3 °F 30.9 °F 79% 29.96 in 10.0 mi ENE 4.6 mph - N/A   Clear
6:53 AM 35.1 °F 31.0 °F 30.0 °F 82% 29.97 in 10.0 mi NE 4.6 mph - N/A   Clear
7:53 AM 42.1 °F 38.4 °F 33.1 °F 70% 29.96 in 10.0 mi NE 5.8 mph - N/A   Clear
8:53 AM 48.9 °F - 36.0 °F 61% 29.95 in 10.0 mi East 5.8 mph - N/A   Clear
9:53 AM 57.0 °F - 35.1 °F 44% 29.92 in 10.0 mi NE 6.9 mph - N/A   Clear
10:53 AM 63.0 °F - 30.0 °F 29% 29.90 in 10.0 mi NE 4.6 mph - N/A   Clear
11:53 AM 66.0 °F - 32.0 °F 28% 29.89 in 10.0 mi West 4.6 mph - N/A   Clear
12:53 PM 66.9 °F - 28.9 °F 24% 29.86 in 10.0 mi Calm Calm - N/A   Clear
1:53 PM 72.0 °F - 30.0 °F 21% 29.83 in 10.0 mi Variable 5.8 mph - N/A   Clear
2:53 PM 69.1 °F - 26.1 °F 20% 29.82 in 10.0 mi Calm Calm - N/A   Mostly Cloudy
3:21 PM 64.4 °F - 24.8 °F 22% 29.90 in 10.0 mi South 15.0 mph 27.6 mph N/A   Overcast
3:35 PM 62.6 °F - 32.0 °F 32% 29.91 in 10.0 mi SE 16.1 mph 31.1 mph 0.00 in Rain Light Rain
3:53 PM 63.0 °F - 30.0 °F 29% 29.85 in 10.0 mi Variable 3.5 mph 18.4 mph 0.00 in Rain Light Rain
4:53 PM 66.9 °F - 26.1 °F 21% 29.81 in 10.0 mi South 3.5 mph - 0.00 in   Clear
5:53 PM 66.9 °F - 27.0 °F 22% 29.82 in 10.0 mi South 15.0 mph 21.9 mph N/A   Clear
6:53 PM 63.0 °F - 32.0 °F 31% 29.84 in 10.0 mi SSW 10.4 mph - N/A   Clear
7:53 PM 61.0 °F - 34.0 °F 36% 29.83 in 10.0 mi SSW 8.1 mph - N/A   Clear
8:53 PM 57.9 °F - 35.1 °F 42% 29.86 in 10.0 mi WSW 3.5 mph - N/A   Mostly Cloudy
9:53 PM 54.0 °F - 36.0 °F 51% 29.85 in 10.0 mi West 3.5 mph - N/A   Clear
10:53 PM 50.0 °F - 37.0 °F 61% 29.85 in 10.0 mi Calm Calm - N/A   Clear
11:53 PM 52.0 °F - 37.9 °F 59% 29.86 in 10.0 mi Calm Calm - N/A   Overcast